Weather History for Avoca, PA

Change the Weather History Date:

Friday, December 7, 2012

  Actual Average Record
Temperature  
Mean Temperature 32 °F 33 °F  
Max Temperature 37 °F 40 °F 69 °F (1998)
Min Temperature 27 °F 27 °F -1 °F (1901)
Degree Days  
Heating Degree Days 33 32  
Month to date heating degree days 155 213  
Since 1 July heating degree days 1382 1526  
Cooling Degree Days 0 0  
Month to date cooling degree days 0 0  
Year to date cooling degree days 864 580  
Moisture  
Dew Point 31 °F    
Average Humidity 78    
Maximum Humidity 92    
Minimum Humidity 63    
Precipitation  
Precipitation 0.17 in 0.10 in 1.72 in (1914)
Month to date precipitation 0.48 0.70  
Year to date precipitation 34.65 36.28  
Sea Level Pressure  
Sea Level Pressure 30.09 in    
Wind  
Wind Speed 3 mph (SSW)    
Max Wind Speed 10 mph    
Max Gust Speed 14 mph    
Visibility 6 miles    
Events Rain    
T = Trace of Precipitation, MM = Missing Value Source: NWS Daily Summary

Daily Weather History Graph

Daily Weather History Graph

Search for Another Location

Airport:

Trip Planner

Search our weather history database for the weather conditions in past years. The results will help you decide how hot, cold, wet, or windy it might be!

Date:

Astronomy

Dec. 07, 2012 Rise Set
Actual Time 7:15 AM EST 4:33 PM EST
Civil Twilight 6:44 AM EST 5:04 PM EST
Nautical Twilight 6:09 AM EST 5:39 PM EST
Astronomical Twilight 5:36 AM EST 6:12 PM EST
Moon 12:28 AM EST (12/7) 12:32 PM EST (12/7)
Length of Visible Light 10h 19m
Length of Day
9h 17m
Last Quarter, 39% of the Moon is Illuminated
Dec 7
Last Quarter
Dec 13
New
Dec 20
First Quarter
Dec 28
Full
Jan 4
Last Quarter

Hourly Weather History & Observations

Time (EST) Temp. Windchill Dew Point Humidity Pressure Visibility Wind Dir Wind Speed Gust Speed Precip Events Conditions
12:54 AM 28.9 °F - 21.0 °F 72% 30.21 in 10.0 mi Calm Calm - N/A   Clear
1:54 AM 28.9 °F - 19.0 °F 67% 30.21 in 10.0 mi Calm Calm - N/A   Clear
2:54 AM 30.0 °F - 19.9 °F 66% 30.20 in 10.0 mi Calm Calm - N/A   Clear
3:54 AM 30.0 °F - 21.0 °F 69% 30.17 in 10.0 mi Calm Calm - N/A   Mostly Cloudy
4:54 AM 32.0 °F 26.4 °F 21.9 °F 66% 30.16 in 10.0 mi SW 5.8 mph - N/A   Overcast
5:54 AM 33.1 °F - 23.0 °F 66% 30.15 in 10.0 mi Calm Calm - N/A   Overcast
6:54 AM 33.1 °F 27.7 °F 24.1 °F 70% 30.16 in 10.0 mi SW 5.8 mph - N/A   Overcast
7:54 AM 33.1 °F 28.7 °F 27.0 °F 78% 30.15 in 7.0 mi SW 4.6 mph - 0.01 in Rain Light Rain
8:54 AM 34.0 °F 29.8 °F 28.0 °F 79% 30.15 in 8.0 mi Variable 4.6 mph - 0.00 in Rain Light Rain
9:18 AM 33.8 °F 30.8 °F 28.4 °F 81% 30.12 in 5.0 mi SW 3.5 mph - 0.00 in Rain Light Rain
9:54 AM 35.1 °F 32.2 °F 30.0 °F 82% 30.15 in 7.0 mi SW 3.5 mph - 0.00 in   Overcast
10:54 AM 35.1 °F 31.0 °F 30.9 °F 85% 30.14 in 5.0 mi SSW 4.6 mph - 0.01 in Rain Light Rain
11:54 AM 36.0 °F 31.1 °F 30.9 °F 82% 30.10 in 6.0 mi SW 5.8 mph - 0.00 in Rain Light Rain
12:32 PM 35.6 °F 31.7 °F 30.2 °F 81% 30.06 in 7.0 mi SSW 4.6 mph - 0.01 in Rain Light Rain
12:54 PM 36.0 °F 30.3 °F 32.0 °F 86% 30.08 in 9.0 mi SSW 6.9 mph - 0.01 in   Overcast
1:54 PM 36.0 °F 33.3 °F 33.1 °F 89% 30.04 in 5.0 mi South 3.5 mph - 0.00 in Rain Light Rain
2:54 PM 36.0 °F - 34.0 °F 93% 30.04 in 4.0 mi Calm Calm - 0.02 in Rain Light Rain
3:54 PM 36.0 °F 31.1 °F 34.0 °F 93% 30.05 in 8.0 mi South 5.8 mph - 0.01 in Rain Light Rain
4:54 PM 36.0 °F - 34.0 °F 93% 30.04 in 7.0 mi Calm Calm - 0.01 in Rain Light Rain
5:54 PM 37.0 °F - 35.1 °F 93% 30.05 in 6.0 mi Calm Calm - 0.01 in   Overcast
6:54 PM 37.0 °F - 35.1 °F 93% 30.06 in 5.0 mi Calm Calm - N/A   Overcast
7:54 PM 37.0 °F - 36.0 °F 96% 30.06 in 3.0 mi Calm Calm - 0.00 in Rain Light Rain
8:11 PM 37.4 °F - 35.6 °F 93% 30.03 in 3.0 mi Calm Calm - 0.00 in Rain Light Rain
8:35 PM 37.4 °F - 35.6 °F 93% 30.03 in 5.0 mi Calm Calm - 0.00 in   Overcast
8:46 PM 37.4 °F - 35.6 °F 93% 30.03 in 5.0 mi Calm Calm - 0.00 in   Overcast
8:54 PM 37.0 °F - 35.1 °F 93% 30.05 in 4.0 mi Calm Calm - 0.00 in   Overcast
9:54 PM 37.0 °F 34.5 °F 35.1 °F 93% 30.03 in 3.0 mi NE 3.5 mph - 0.01 in Rain Light Rain
10:51 PM 37.4 °F 33.8 °F 35.6 °F 93% 29.99 in 3.0 mi NE 4.6 mph - 0.04 in Rain Light Rain
10:54 PM 37.0 °F 34.5 °F 35.1 °F 93% 30.01 in 2.5 mi NE 3.5 mph - 0.05 in Rain Light Rain
11:10 PM 37.4 °F - 35.6 °F 93% 30.00 in 2.5 mi Calm Calm - 0.01 in Rain Light Rain
11:24 PM 37.4 °F 33.8 °F 35.6 °F 93% 29.99 in 3.0 mi NE 4.6 mph - 0.01 in Rain Light Rain
11:45 PM 37.4 °F 33.8 °F 35.6 °F 93% 29.98 in 2.5 mi NE 4.6 mph - 0.02 in Rain Light Rain
11:54 PM 37.0 °F 34.5 °F 36.0 °F 96% 30.00 in 2.5 mi NE 3.5 mph - 0.03 in Rain Light Rain